星链-3279 (STARLINK-3279 )

导读

STARLINK-3279是美国太空探索技术公司 SpaceX 星链星座中的一颗卫星,于2021年12月18日发射升空,属于星链互联网卫星组网的一部分,主要为全球多地提供低轨宽带互联网接入服务,依托大规模星座部署,助力实现全球覆盖的高速卫星通信网络构建。

基本信息
目录编号:
50185
目录名称:
STARLINK-3279
国际标识:
2021-125AF
轨道中心:
EARTH
卫星名称:
星链-3279
卫星全名:
星链-3279 (STARLINK-3279 )
卫星状态:
在轨 (已飞行1722 天)
发射日期:
2021-12-18 UTC
国别 :
美国 (US)
星等 :
--
轨道信息
数据来源 国际轨道数据
星历时间: 2026-09-05T11:05:09+0800
5小时前
查看轨道信息
半长轴: 6848.888km
偏心率: 0.0001121
轨道倾角: 53.159°
近地点辐角 86.805°
升交点赤经 153.325°
平近点角 273.308°
近地点: 469.983km
远地点: 471.519km
周期: 94.013分钟
每日圈数: 15.316966
详细信息
固有亮度:
5
最大亮度:
2.5
卫星平台:
Starlink v1.5
覆盖范围:
全球
运营商:
太空探索技术公司
运营商所在国:
美国
制造商(研发单位):
太空探索技术公司
制造商所在国:
美国
使用方式:
暂无
卫星简介
星链(Starlink)计划是由太空探索技术公司(SpaceX)提出的一个巨型低轨卫星互联网星座项目,计划在2019年至2024年间在太空搭建由约1.2万颗卫星组成的“星链”网络,其中1584颗将部署在地球上空550千米处的近地轨道,并从2020年开始工作。该卫星仍在工作。
2D轨道图
3D轨道图
轨道高度分析图
轨道倾角分析图
轨道综合分析图
查看轨道综合分析图
交会数据列表
事件ID 空间交会对象 最接近时刻(TCA) 交会距离 交会风险概率(CRP) 交会风险指数(CRI) 操作
CDM_260831-131304-464105-018524
2026-08-31T
13:13:06+0000
0.666 km
远距离
9.59957E-5 中风险 0.75
CDM_260906-111405-018506-443121
2026-09-06T
11:14:27+0000
1.779 km
极远距离
3.691252E-6 低风险 0.46
CDM_260906-221205-018506-262322
OTTER (62623)
2026-09-06T
22:12:34+0000
2.500 km
极远距离
1.751193E-6 低风险 0.4
CDM_260906-083505-018506-565622
2026-09-06T
08:35:03+0000
2.956 km
极远距离
1.324648E-6 低风险 0.37
CDM_260905-194505-018506-803321
2026-09-05T
19:45:53+0000
2.855 km
极远距离
9.918146E-7 极低风险 0.35